Weather in Abano Terme

Italy     45°21′36″N   11°47′42″E
temp.,
°C
wind,
m/s
gust,
m/s
humid.,
%
clouds,
%
prec.,
mm/h
press.,
hPa
HPBL,
m
8 may, sat
sat823:00+14ene41095100 2.2 1013358
02:00+12ene8158065 2.2 1015629
05:00+13ene4979100 0.2 1018545
08:00+11ne4974100 0.2 1020509
11:00+12ne3671100 0.0 1021520
14:00+16ene2257100 0.0 1021806
17:00+18e115398 0.0 10191154
20:00+15e226624 0.0 101926
9 may, sun
sun923:00+12se116646 0.0 102110
02:00+11nne11675 0.0 102110
05:00+11ne11705 0.0 102010
08:00+13n12675 0.0 1021141
11:00+18ene11545 0.0 1020754
14:00+21se22485 0.0 10191315
17:00+22ese225226 0.0 10181428
20:00+17ese23746 0.0 101870
10 may, mon
mon1023:00+14sse1171100 0.0 101912
02:00+13ene117443 0.0 101812
05:00+13ne22785 0.0 101729
08:00+15ne34740 0.0 1018228
11:00+19ene44641 0.0 1017758
14:00+21ene436150 0.0 1016962
17:00+21ene4464100 0.0 1015664
20:00+17ene4781100 0.0 1015239
11 may, tue
tue1123:00+16ne478393 0.0 1015227
02:00+14ne369314 0.0 1014155
05:00+14ne3692100 0.0 1013138
08:00+15nne3583100 0.0 1014250
11:00+16ene4685100 0.8 1013331
14:00+16ene2389100 4.5 1011220
17:00+16e51086100 0.9 1009513
20:00+15sse4793100 3.6 1007335
12 may, wed
wed1223:00+14nw3494100 3.2 1007129
02:00+13nw3597100 6.0 1005265
05:00+13w3593100 3.0 1004204
08:00+12w5991100 7.7 1005370
11:00+16w5675100 0.0 1006762
14:00+20wsw555995 0.0 10051105
17:00+21ssw2354100 0.0 10051397
20:00+15ese368799 2.8 1006207